| time (UTC) | temp F | wind direction | speed MPH | gust MPH | rain 1hr in | rain 24hr in | rain mn in | humidity % | barometer mb |
| 20260502130535 | 51 | 116 | 0.0 | 3.0 | 0.00 | 0.00 | 0.00 | 53 | 1012.5 |
| 20260502123531 | 50 | 103 | 0.0 | 3.0 | 0.00 | 0.00 | 0.00 | 55 | 1012.2 |
| 20260502123030 | 50 | 107 | 1.0 | 3.0 | 0.00 | 0.00 | 0.00 | 55 | 1012.2 |
| 20260502122530 | 50 | 129 | 0.0 | 2.0 | 0.00 | 0.00 | 0.00 | 56 | 1012.2 |
| 20260502122029 | 50 | 129 | 0.0 | 3.0 | 0.00 | 0.00 | 0.00 | 56 | 1012.2 |
| 20260502121529 | 50 | 129 | 0.0 | 3.0 | 0.00 | 0.00 | 0.00 | 56 | 1012.2 |
| 20260502121029 | 50 | 128 | 1.0 | 3.0 | 0.00 | 0.00 | 0.00 | 56 | 1012.1 |
| 20260502120527 | 50 | 111 | 1.0 | 3.0 | 0.00 | 0.00 | 0.00 | 56 | 1012.1 |
| 20260502115529 | 50 | 131 | 1.0 | 3.0 | 0.00 | 0.00 | 0.00 | 55 | 1012.0 |
| 20260502115025 | 49 | 130 | 1.0 | 3.0 | 0.00 | 0.00 | 0.00 | 56 | 1012.0 |
| 20260502114524 | 49 | 130 | 0.0 | 2.0 | 0.00 | 0.00 | 0.00 | 57 | 1012.0 |
| 20260502114024 | 49 | 130 | 0.0 | 3.0 | 0.00 | 0.00 | 0.00 | 57 | 1011.9 |
| 20260502113526 | 49 | 130 | 0.0 | 3.0 | 0.00 | 0.00 | 0.00 | 56 | 1011.8 |
| 20260502113023 | 49 | 130 | 0.0 | 3.0 | 0.00 | 0.00 | 0.00 | 56 | 1011.7 |
| 20260502112521 | 49 | 130 | 0.0 | 3.0 | 0.00 | 0.00 | 0.00 | 56 | 1011.6 |
| 20260502112021 | 49 | 130 | 0.0 | 4.0 | 0.00 | 0.00 | 0.00 | 56 | 1011.8 |
| 20260502111521 | 49 | 79 | 1.0 | 3.0 | 0.00 | 0.00 | 0.00 | 58 | 1011.9 |
| 20260502111021 | 49 | 142 | 1.0 | 2.0 | 0.00 | 0.00 | 0.00 | 57 | 1011.7 |
| 20260502110520 | 49 | 142 | 0.0 | 2.0 | 0.00 | 0.00 | 0.00 | 59 | 1011.7 |
| 20260502110019 | 49 | 142 | 0.0 | 1.0 | 0.00 | 0.00 | 0.00 | 59 | 1011.7 |
| 20260502105519 | 49 | 142 | 0.0 | 1.0 | 0.00 | 0.00 | 0.00 | 60 | 1011.6 |
| 20260502105018 | 49 | 142 | 0.0 | 0.0 | 0.00 | 0.00 | 0.00 | 58 | 1011.6 |
| 20260502104518 | 49 | 142 | 0.0 | 0.0 | 0.00 | 0.00 | 0.00 | 58 | 1011.4 |
| 20260502104017 | 49 | 142 | 0.0 | 0.0 | 0.00 | 0.00 | 0.00 | 57 | 1011.7 |
| 20260502103515 | 49 | 142 | 0.0 | 1.0 | 0.00 | 0.00 | 0.00 | 57 | 1011.7 |
| 20260502103015 | 49 | 142 | 0.0 | 1.0 | 0.00 | 0.00 | 0.00 | 58 | 1011.8 |
| 20260502102515 | 49 | 142 | 0.0 | 1.0 | 0.00 | 0.00 | 0.00 | 58 | 1011.7 |
| 20260502102014 | 49 | 142 | 0.0 | 1.0 | 0.00 | 0.00 | 0.00 | 59 | 1011.7 |
| 20260502101515 | 49 | 142 | 0.0 | 0.0 | 0.00 | 0.00 | 0.00 | 57 | 1011.6 |
| 20260502101012 | 49 | 142 | 0.0 | 1.0 | 0.00 | 0.00 | 0.00 | 60 | 1011.7 |
| 20260502100512 | 49 | 142 | 0.0 | 1.0 | 0.00 | 0.00 | 0.00 | 61 | 1011.8 |
| 20260502091507 | 50 | 142 | 0.0 | 1.0 | 0.00 | 0.00 | 0.00 | 61 | 1011.6 |
| 20260502091007 | 50 | 142 | 0.0 | 1.0 | 0.00 | 0.00 | 0.00 | 60 | 1011.5 |
| 20260502090506 | 50 | 142 | 0.0 | 1.0 | 0.00 | 0.00 | 0.00 | 61 | 1011.6 |
| 20260502071055 | 53 | 155 | 0.0 | 2.0 | 0.00 | 0.00 | 0.00 | 64 | 1010.9 |
| 20260502070554 | 53 | 155 | 0.0 | 2.0 | 0.00 | 0.00 | 0.00 | 63 | 1011.1 |
| 20260502070058 | 53 | 155 | 0.0 | 2.0 | 0.00 | 0.00 | 0.00 | 63 | 1011.1 |
| 20260502065553 | 53 | 150 | 0.0 | 2.0 | 0.00 | 0.00 | 0.00 | 63 | 1011.1 |
| 20260502065052 | 53 | 150 | 0.0 | 5.0 | 0.00 | 0.00 | 0.00 | 62 | 1011.0 |
| 20260502064552 | 53 | 153 | 0.0 | 2.0 | 0.00 | 0.00 | 0.00 | 62 | 1011.1 |
| 20260502064151 | 53 | 153 | 0.0 | 5.0 | 0.00 | 0.00 | 0.00 | 61 | 1011.1 |
| 20260502063554 | 54 | 153 | 1.0 | 5.0 | 0.00 | 0.00 | 0.00 | 62 | 1011.1 |
| 20260502063153 | 54 | 154 | 0.0 | 2.0 | 0.00 | 0.00 | 0.00 | 62 | 1011.2 |
| 20260502062550 | 54 | 154 | 0.0 | 4.0 | 0.00 | 0.00 | 0.00 | 61 | 1011.2 |
| 20260502062051 | 54 | 147 | 0.0 | 5.0 | 0.00 | 0.00 | 0.00 | 60 | 1011.3 |
| 20260502061550 | 54 | 146 | 1.0 | 5.0 | 0.00 | 0.00 | 0.00 | 61 | 1011.2 |
| 20260502061048 | 54 | 142 | 1.0 | 4.0 | 0.00 | 0.00 | 0.00 | 60 | 1011.2 |
| 20260502060548 | 54 | 131 | 0.0 | 3.0 | 0.00 | 0.00 | 0.00 | 61 | 1011.3 |
| 20260502060053 | 54 | 121 | 0.0 | 2.0 | 0.00 | 0.00 | 0.00 | 60 | 1011.4 |
| 20260502055551 | 54 | 132 | 0.0 | 2.0 | 0.00 | 0.00 | 0.00 | 60 | 1011.4 |
| 20260502055047 | 54 | 132 | 0.0 | 3.0 | 0.00 | 0.00 | 0.00 | 61 | 1011.3 |
| 20260502054553 | 54 | 132 | 1.0 | 3.0 | 0.00 | 0.00 | 0.00 | 60 | 1011.2 |
| 20260502054045 | 54 | 132 | 0.0 | 3.0 | 0.00 | 0.00 | 0.00 | 60 | 1011.2 |
| 20260502053545 | 55 | 134 | 1.0 | 2.0 | 0.00 | 0.00 | 0.00 | 60 | 1011.2 |
| 20260502053045 | 55 | 147 | 0.0 | 1.0 | 0.00 | 0.00 | 0.00 | 60 | 1011.2 |
| 20260502052550 | 55 | 146 | 0.0 | 2.0 | 0.00 | 0.00 | 0.00 | 62 | 1011.2 |
| 20260502052048 | 55 | 146 | 0.0 | 2.0 | 0.00 | 0.00 | 0.00 | 61 | 1011.1 |
| 20260502051543 | 55 | 146 | 0.0 | 1.0 | 0.00 | 0.00 | 0.00 | 61 | 1011.1 |
| 20260502051042 | 55 | 146 | 0.0 | 2.0 | 0.00 | 0.00 | 0.00 | 61 | 1011.1 |
| 20260502050542 | 55 | 146 | 0.0 | 3.0 | 0.00 | 0.00 | 0.00 | 61 | 1011.2 |
| 20260502050042 | 56 | 146 | 0.0 | 3.0 | 0.00 | 0.00 | 0.00 | 62 | 1011.1 |
| 20260502045544 | 56 | 146 | 0.0 | 1.0 | 0.00 | 0.00 | 0.00 | 62 | 1011.2 |
| 20260502045041 | 56 | 146 | 0.0 | 1.0 | 0.00 | 0.00 | 0.00 | 63 | 1011.2 |
| 20260502044544 | 56 | 146 | 0.0 | 2.0 | 0.00 | 0.00 | 0.00 | 61 | 1011.2 |
| 20260502044038 | 57 | 146 | 0.0 | 2.0 | 0.00 | 0.00 | 0.00 | 61 | 1011.3 |
| 20260502043538 | 57 | 146 | 0.0 | 0.0 | 0.00 | 0.00 | 0.00 | 60 | 1011.2 |
| 20260502043043 | 57 | 146 | 0.0 | 2.0 | 0.00 | 0.00 | 0.00 | 62 | 1011.0 |
| 20260502042536 | 57 | 146 | 0.0 | 2.0 | 0.00 | 0.00 | 0.00 | 60 | 1011.0 |
| 20260502042036 | 57 | 146 | 0.0 | 1.0 | 0.00 | 0.00 | 0.00 | 60 | 1010.9 |
| 20260502041542 | 57 | 146 | 0.0 | 1.0 | 0.00 | 0.00 | 0.00 | 60 | 1011.0 |
| 20260502041034 | 57 | 146 | 0.0 | 1.0 | 0.00 | 0.00 | 0.00 | 61 | 1011.0 |
| 20260502040533 | 57 | 146 | 0.0 | 1.0 | 0.00 | 0.00 | 0.00 | 60 | 1011.0 |
| 20260502040032 | 58 | 146 | 0.0 | 0.0 | 0.00 | 0.00 | 0.00 | 61 | 1010.9 |
| 20260502035532 | 58 | 146 | 0.0 | 0.0 | 0.00 | 0.00 | 0.00 | 60 | 1010.8 |
| 20260502035031 | 58 | 146 | 0.0 | 1.0 | 0.00 | 0.00 | 0.00 | 60 | 1010.9 |
| 20260502034537 | 58 | 146 | 0.0 | 1.0 | 0.00 | 0.00 | 0.00 | 60 | 1010.9 |
| 20260502034034 | 58 | 146 | 0.0 | 1.0 | 0.00 | 0.00 | 0.00 | 59 | 1010.9 |
| 20260502033531 | 59 | 146 | 0.0 | 2.0 | 0.00 | 0.00 | 0.00 | 59 | 1010.9 |
| 20260502033032 | 59 | 146 | 0.0 | 2.0 | 0.00 | 0.00 | 0.00 | 58 | 1010.7 |
| 20260502032530 | 59 | 146 | 0.0 | 2.0 | 0.00 | 0.00 | 0.00 | 58 | 1010.6 |
| 20260502032030 | 59 | 146 | 0.0 | 2.0 | 0.00 | 0.00 | 0.00 | 57 | 1010.4 |
| 20260502031530 | 59 | 146 | 0.0 | 3.0 | 0.00 | 0.00 | 0.00 | 57 | 1010.4 |
| 20260502031031 | 59 | 146 | 1.0 | 3.0 | 0.00 | 0.00 | 0.00 | 57 | 1010.4 |
| 20260502030531 | 59 | 146 | 1.0 | 3.0 | 0.00 | 0.00 | 0.00 | 56 | 1010.4 |
| 20260502030031 | 59 | 153 | 0.0 | 5.0 | 0.00 | 0.00 | 0.00 | 57 | 1010.2 |
| 20260502025530 | 59 | 153 | 1.0 | 5.0 | 0.00 | 0.00 | 0.00 | 56 | 1010.3 |
| 20260502025029 | 59 | 128 | 0.0 | 3.0 | 0.00 | 0.00 | 0.00 | 57 | 1010.3 |
| 20260502024529 | 59 | 147 | 0.0 | 2.0 | 0.00 | 0.00 | 0.00 | 56 | 1010.3 |
| 20260502024032 | 59 | 147 | 0.0 | 3.0 | 0.00 | 0.00 | 0.00 | 57 | 1010.3 |
| 20260502023529 | 59 | 147 | 0.0 | 4.0 | 0.00 | 0.00 | 0.00 | 58 | 1010.1 |
| 20260502023029 | 59 | 141 | 0.0 | 3.0 | 0.00 | 0.00 | 0.00 | 60 | 1009.9 |
| 20260502022528 | 59 | 141 | 0.0 | 3.0 | 0.00 | 0.00 | 0.00 | 61 | 1009.9 |
| 20260502022028 | 59 | 141 | 0.0 | 2.0 | 0.00 | 0.00 | 0.00 | 62 | 1009.8 |
| 20260502021528 | 59 | 140 | 0.0 | 2.0 | 0.00 | 0.00 | 0.00 | 64 | 1009.7 |
| 20260502021028 | 59 | 81 | 0.0 | 2.0 | 0.00 | 0.00 | 0.00 | 65 | 1009.6 |
| 20260502020528 | 59 | 81 | 0.0 | 0.0 | 0.00 | 0.00 | 0.00 | 65 | 1009.0 |
| 20260502020028 | 59 | 81 | 0.0 | 0.0 | 0.00 | 0.00 | 0.00 | 65 | 1009.0 |
| 20260502015528 | 59 | 81 | 0.0 | 0.0 | 0.00 | 0.00 | 0.00 | 64 | 1008.9 |
| 20260502015027 | 59 | 81 | 0.0 | 0.0 | 0.00 | 0.00 | 0.00 | 63 | 1009.0 |
| 20260502014546 | 59 | 81 | 0.0 | 1.0 | 0.00 | 0.00 | 0.00 | 63 | 1009.0 |
| 20260502014026 | 59 | 81 | 0.0 | 1.0 | 0.00 | 0.00 | 0.00 | 62 | 1008.9 |
| 20260502013526 | 59 | 81 | 0.0 | 1.0 | 0.00 | 0.00 | 0.00 | 61 | 1008.8 |
| 20260502013028 | 59 | 81 | 0.0 | 1.0 | 0.00 | 0.00 | 0.00 | 61 | 1008.9 |
| 20260502012526 | 60 | 81 | 0.0 | 1.0 | 0.00 | 0.00 | 0.00 | 61 | 1008.7 |
| 20260502012026 | 60 | 81 | 0.0 | 1.0 | 0.00 | 0.00 | 0.00 | 60 | 1008.5 |
| 20260502011526 | 60 | 81 | 0.0 | 1.0 | 0.00 | 0.00 | 0.00 | 59 | 1008.5 |
| 20260502011026 | 61 | 81 | 0.0 | 1.0 | 0.00 | 0.00 | 0.00 | 59 | 1008.5 |
| 20260502010525 | 61 | 81 | 0.0 | 1.0 | 0.00 | 0.00 | 0.00 | 58 | 1008.4 |
| 20260502010026 | 61 | 81 | 0.0 | 0.0 | 0.00 | 0.00 | 0.00 | 58 | 1008.3 |
| 20260502005525 | 61 | 81 | 0.0 | 1.0 | 0.00 | 0.00 | 0.00 | 57 | 1008.3 |
| 20260502005026 | 62 | 81 | 0.0 | 2.0 | 0.00 | 0.00 | 0.00 | 55 | 1008.2 |
| 20260502004525 | 62 | 81 | 0.0 | 2.0 | 0.00 | 0.00 | 0.00 | 54 | 1008.0 |
| 20260502004025 | 62 | 81 | 0.0 | 2.0 | 0.00 | 0.00 | 0.00 | 54 | 1007.9 |
| 20260502003524 | 62 | 81 | 0.0 | 2.0 | 0.00 | 0.00 | 0.00 | 53 | 1008.0 |
| 20260502003025 | 62 | 84 | 0.0 | 2.0 | 0.00 | 0.00 | 0.00 | 52 | 1007.9 |
| 20260502002525 | 63 | 84 | 0.0 | 2.0 | 0.00 | 0.00 | 0.00 | 53 | 1007.9 |
| 20260502002024 | 63 | 83 | 0.0 | 2.0 | 0.00 | 0.00 | 0.00 | 52 | 1007.8 |
| 20260502001524 | 63 | 83 | 0.0 | 3.0 | 0.00 | 0.00 | 0.00 | 53 | 1007.6 |
| 20260502001024 | 63 | 82 | 0.0 | 3.0 | 0.00 | 0.00 | 0.00 | 50 | 1007.7 |
| 20260502000524 | 63 | 44 | 0.0 | 3.0 | 0.00 | 0.00 | 0.00 | 50 | 1007.6 |
| 20260502000041 | 63 | 59 | 0.0 | 3.0 | 0.00 | 0.00 | 0.00 | 50 | 1007.5 |
| 20260501235523 | 63 | 309 | 1.0 | 3.0 | 0.00 | 0.00 | 0.00 | 50 | 1007.1 |
| 20260501235023 | 63 | 258 | 1.0 | 3.0 | 0.00 | 0.00 | 0.00 | 49 | 1007.0 |
| 20260501234523 | 64 | 319 | 0.0 | 2.0 | 0.00 | 0.00 | 0.00 | 49 | 1007.0 |
| 20260501234024 | 64 | 320 | 0.0 | 2.0 | 0.00 | 0.00 | 0.00 | 49 | 1007.0 |
| 20260501233523 | 64 | 327 | 0.0 | 4.0 | 0.00 | 0.00 | 0.00 | 49 | 1007.0 |
| 20260501233023 | 64 | 338 | 1.0 | 7.0 | 0.00 | 0.00 | 0.00 | 48 | 1007.0 |
| 20260501232523 | 64 | 286 | 1.0 | 4.0 | 0.00 | 0.00 | 0.00 | 48 | 1006.9 |
| 20260501232025 | 65 | 259 | 1.0 | 4.0 | 0.00 | 0.00 | 0.00 | 47 | 1007.0 |
| 20260501231525 | 65 | 226 | 0.0 | 4.0 | 0.00 | 0.00 | 0.00 | 47 | 1007.1 |
| 20260501231022 | 65 | 238 | 0.0 | 8.0 | 0.00 | 0.00 | 0.00 | 47 | 1007.0 |
| 20260501230525 | 65 | 240 | 2.0 | 8.0 | 0.00 | 0.00 | 0.00 | 46 | 1007.0 |
| 20260501230022 | 66 | 216 | 2.0 | 8.0 | 0.00 | 0.00 | 0.00 | 46 | 1007.0 |
| 20260501225521 | 66 | 247 | 1.0 | 6.0 | 0.00 | 0.00 | 0.00 | 45 | 1007.0 |
| 20260501225021 | 66 | 165 | 1.0 | 6.0 | 0.00 | 0.00 | 0.00 | 46 | 1006.9 |
| 20260501224521 | 67 | 242 | 2.0 | 11.0 | 0.00 | 0.00 | 0.00 | 45 | 1007.0 |
| 20260501224021 | 67 | 316 | 1.0 | 11.0 | 0.00 | 0.00 | 0.00 | 45 | 1007.0 |
| 20260501223521 | 67 | 171 | 0.0 | 7.0 | 0.00 | 0.00 | 0.00 | 44 | 1007.1 |
| 20260501223021 | 67 | 250 | 1.0 | 7.0 | 0.00 | 0.00 | 0.00 | 45 | 1007.0 |
| 20260501222521 | 67 | 227 | 1.0 | 6.0 | 0.00 | 0.00 | 0.00 | 45 | 1007.0 |
| 20260501222020 | 67 | 257 | 0.0 | 5.0 | 0.00 | 0.00 | 0.00 | 46 | 1007.1 |
| 20260501221527 | 67 | 259 | 0.0 | 5.0 | 0.00 | 0.00 | 0.00 | 43 | 1007.3 |
| 20260501221019 | 67 | 305 | 0.0 | 6.0 | 0.00 | 0.00 | 0.00 | 45 | 1007.2 |
| 20260501220519 | 67 | 304 | 1.0 | 6.0 | 0.00 | 0.00 | 0.00 | 43 | 1007.2 |
| 20260501220019 | 67 | 328 | 0.0 | 2.0 | 0.00 | 0.00 | 0.00 | 45 | 1007.1 |
| 20260501215518 | 67 | 291 | 0.0 | 5.0 | 0.00 | 0.00 | 0.00 | 44 | 1007.2 |
| 20260501215018 | 68 | 290 | 1.0 | 5.0 | 0.00 | 0.00 | 0.00 | 42 | 1007.3 |
| 20260501214528 | 68 | 209 | 1.0 | 6.0 | 0.00 | 0.00 | 0.00 | 42 | 1007.5 |
| 20260501214017 | 68 | 287 | 0.0 | 5.0 | 0.00 | 0.00 | 0.00 | 45 | 1007.5 |
| 20260501213517 | 68 | 315 | 0.0 | 5.0 | 0.00 | 0.00 | 0.00 | 43 | 1007.2 |
| 20260501213016 | 68 | 235 | 0.0 | 4.0 | 0.00 | 0.00 | 0.00 | 44 | 1007.4 |
| 20260501212516 | 68 | 333 | 0.0 | 4.0 | 0.00 | 0.00 | 0.00 | 44 | 1007.5 |
| 20260501212016 | 68 | 297 | 1.0 | 4.0 | 0.00 | 0.00 | 0.00 | 43 | 1007.5 |
| 20260501211516 | 67 | 293 | 0.0 | 4.0 | 0.00 | 0.00 | 0.00 | 44 | 1007.6 |
| 20260501211016 | 67 | 294 | 1.0 | 4.0 | 0.00 | 0.00 | 0.00 | 43 | 1007.5 |
| 20260501210514 | 67 | 324 | 1.0 | 4.0 | 0.00 | 0.00 | 0.00 | 41 | 1007.6 |
| 20260501210014 | 68 | 219 | 1.0 | 7.0 | 0.00 | 0.00 | 0.00 | 41 | 1007.8 |
| 20260501205514 | 67 | 223 | 1.0 | 8.0 | 0.00 | 0.00 | 0.00 | 43 | 1007.8 |
| 20260501205014 | 67 | 251 | 0.0 | 8.0 | 0.00 | 0.00 | 0.00 | 41 | 1007.8 |
| 20260501204512 | 68 | 52 | 1.0 | 3.0 | 0.00 | 0.00 | 0.00 | 41 | 1007.9 |
| 20260501204012 | 68 | 331 | 0.0 | 5.0 | 0.00 | 0.00 | 0.00 | 43 | 1007.8 |
| 20260501203512 | 67 | 40 | 0.0 | 5.0 | 0.00 | 0.00 | 0.00 | 42 | 1007.9 |
| 20260501203012 | 67 | 279 | 0.0 | 3.0 | 0.00 | 0.00 | 0.00 | 42 | 1008.0 |
| 20260501202511 | 67 | 310 | 0.0 | 6.0 | 0.00 | 0.00 | 0.00 | 43 | 1008.1 |
| 20260501202011 | 67 | 210 | 0.0 | 6.0 | 0.00 | 0.00 | 0.00 | 42 | 1008.0 |
| 20260501201510 | 67 | 186 | 1.0 | 8.0 | 0.00 | 0.00 | 0.00 | 41 | 1008.3 |
| 20260501201010 | 67 | 88 | 1.0 | 8.0 | 0.00 | 0.00 | 0.00 | 41 | 1008.2 |
| 20260501200509 | 68 | 320 | 1.0 | 4.0 | 0.00 | 0.00 | 0.00 | 40 | 1008.3 |
| 20260501200008 | 68 | 201 | 1.0 | 5.0 | 0.00 | 0.00 | 0.00 | 40 | 1008.4 |
| 20260501195508 | 69 | 271 | 1.0 | 3.0 | 0.00 | 0.00 | 0.00 | 40 | 1008.5 |
| 20260501195007 | 69 | 321 | 1.0 | 13.0 | 0.00 | 0.00 | 0.00 | 40 | 1008.5 |
| 20260501194506 | 69 | 261 | 2.0 | 13.0 | 0.00 | 0.00 | 0.00 | 38 | 1008.8 |
| 20260501194006 | 70 | 134 | 2.0 | 6.0 | 0.00 | 0.00 | 0.00 | 36 | 1009.0 |
| 20260501193504 | 71 | 281 | 1.0 | 5.0 | 0.00 | 0.00 | 0.00 | 36 | 1009.0 |
| 20260501193010 | 72 | 325 | 1.0 | 5.0 | 0.00 | 0.00 | 0.00 | 36 | 1009.0 |
| 20260501192503 | 72 | 268 | 1.0 | 6.0 | 0.00 | 0.00 | 0.00 | 36 | 1009.2 |
| 20260501192002 | 72 | 269 | 0.0 | 5.0 | 0.00 | 0.00 | 0.00 | 37 | 1009.1 |
| 20260501191502 | 72 | 196 | 1.0 | 7.0 | 0.00 | 0.00 | 0.00 | 34 | 1009.4 |
| 20260501191001 | 72 | 340 | 1.0 | 7.0 | 0.00 | 0.00 | 0.00 | 34 | 1009.7 |
| 20260501190501 | 73 | 178 | 1.0 | 5.0 | 0.00 | 0.00 | 0.00 | 34 | 1009.7 |
| 20260501190059 | 73 | 256 | 0.0 | 3.0 | 0.00 | 0.00 | 0.00 | 35 | 1009.7 |
| 20260501185558 | 72 | 229 | 0.0 | 6.0 | 0.00 | 0.00 | 0.00 | 36 | 1009.7 |
| 20260501185056 | 71 | 160 | 1.0 | 6.0 | 0.00 | 0.00 | 0.00 | 37 | 1009.8 |
| 20260501184559 | 71 | 140 | 1.0 | 4.0 | 0.00 | 0.00 | 0.00 | 35 | 1009.8 |
| 20260501184055 | 71 | 39 | 1.0 | 5.0 | 0.00 | 0.00 | 0.00 | 34 | 1009.9 |
| 20260501183557 | 71 | 60 | 1.0 | 5.0 | 0.00 | 0.00 | 0.00 | 37 | 1010.1 |
| 20260501183056 | 71 | 141 | 1.0 | 3.0 | 0.00 | 0.00 | 0.00 | 37 | 1010.1 |
| 20260501182553 | 70 | 340 | 0.0 | 3.0 | 0.00 | 0.00 | 0.00 | 39 | 1010.1 |
| 20260501182054 | 70 | 121 | 1.0 | 5.0 | 0.00 | 0.00 | 0.00 | 37 | 1010.4 |
| 20260501181553 | 70 | 200 | 2.0 | 5.0 | 0.00 | 0.00 | 0.00 | 38 | 1010.3 |
| 20260501181052 | 70 | 287 | 1.0 | 4.0 | 0.00 | 0.00 | 0.00 | 37 | 1010.3 |
| 20260501180552 | 70 | 119 | 1.0 | 6.0 | 0.00 | 0.00 | 0.00 | 37 | 1010.5 |
| 20260501180051 | 70 | 166 | 0.0 | 10.0 | 0.00 | 0.00 | 0.00 | 37 | 1010.6 |
| 20260501175553 | 70 | 264 | 1.0 | 10.0 | 0.00 | 0.00 | 0.00 | 37 | 1010.7 |
| 20260501175050 | 70 | 294 | 1.0 | 4.0 | 0.00 | 0.00 | 0.00 | 36 | 1010.8 |
| 20260501174550 | 71 | 254 | 2.0 | 5.0 | 0.00 | 0.00 | 0.00 | 35 | 1010.7 |
| 20260501174048 | 71 | 130 | 0.0 | 4.0 | 0.00 | 0.00 | 0.00 | 38 | 1010.8 |
| 20260501173547 | 71 | 229 | 1.0 | 4.0 | 0.00 | 0.00 | 0.00 | 39 | 1010.9 |
| 20260501173046 | 70 | 245 | 0.0 | 6.0 | 0.00 | 0.00 | 0.00 | 38 | 1011.0 |
| 20260501172544 | 70 | 120 | 1.0 | 6.0 | 0.00 | 0.00 | 0.00 | 39 | 1011.0 |
| 20260501172042 | 69 | 217 | 1.0 | 4.0 | 0.00 | 0.00 | 0.00 | 41 | 1011.1 |
| 20260501171544 | 68 | 206 | 1.0 | 9.0 | 0.00 | 0.00 | 0.00 | 41 | 1011.2 |
| 20260501171040 | 68 | 252 | 1.0 | 4.0 | 0.00 | 0.00 | 0.00 | 41 | 1011.4 |
| 20260501170542 | 67 | 171 | 1.0 | 6.0 | 0.00 | 0.00 | 0.00 | 41 | 1011.5 |
| 20260501170041 | 67 | 201 | 1.0 | 4.0 | 0.00 | 0.00 | 0.00 | 40 | 1011.6 |
| 20260501165537 | 67 | 288 | 0.0 | 5.0 | 0.00 | 0.01 | 0.00 | 41 | 1011.8 |
| 20260501165035 | 66 | 220 | 2.0 | 5.0 | 0.00 | 0.01 | 0.00 | 43 | 1011.8 |
| 20260501164534 | 66 | 134 | 0.0 | 6.0 | 0.00 | 0.01 | 0.00 | 44 | 1011.7 |
| 20260501164032 | 65 | 151 | 1.0 | 6.0 | 0.00 | 0.01 | 0.00 | 42 | 1012.0 |
| 20260501163531 | 65 | 311 | 1.0 | 6.0 | 0.00 | 0.01 | 0.00 | 42 | 1012.1 |
| 20260501163037 | 66 | 340 | 1.0 | 5.0 | 0.00 | 0.01 | 0.00 | 43 | 1012.2 |
| 20260501162529 | 65 | 139 | 0.0 | 6.0 | 0.00 | 0.01 | 0.00 | 45 | 1012.2 |
| 20260501162028 | 64 | 178 | 1.0 | 4.0 | 0.00 | 0.01 | 0.00 | 44 | 1012.3 |
| 20260501161528 | 63 | 138 | 2.0 | 4.0 | 0.00 | 0.01 | 0.00 | 46 | 1012.4 |
| 20260501161025 | 62 | 64 | 0.0 | 3.0 | 0.00 | 0.01 | 0.00 | 47 | 1012.3 |
| 20260501160523 | 62 | 229 | 1.0 | 4.0 | 0.00 | 0.01 | 0.00 | 48 | 1012.4 |
| 20260501160030 | 61 | 166 | 1.0 | 5.0 | 0.00 | 0.01 | 0.00 | 48 | 1012.9 |
| 20260501155522 | 60 | 41 | 0.0 | 3.0 | 0.00 | 0.01 | 0.00 | 51 | 1012.7 |
| 20260501155021 | 60 | 65 | 0.0 | 3.0 | 0.00 | 0.01 | 0.00 | 51 | 1012.8 |
| 20260501154518 | 59 | 48 | 0.0 | 3.0 | 0.00 | 0.01 | 0.00 | 52 | 1012.9 |
| 20260501154016 | 59 | 279 | 0.0 | 4.0 | 0.00 | 0.01 | 0.00 | 54 | 1012.9 |
| 20260501153516 | 58 | 298 | 1.0 | 4.0 | 0.00 | 0.01 | 0.00 | 50 | 1013.0 |
| 20260501153015 | 58 | 23 | 1.0 | 6.0 | 0.00 | 0.01 | 0.00 | 52 | 1013.1 |
| 20260501152514 | 58 | 149 | 1.0 | 5.0 | 0.00 | 0.01 | 0.00 | 53 | 1013.2 |
| 20260501152012 | 57 | 295 | 1.0 | 4.0 | 0.00 | 0.01 | 0.00 | 54 | 1013.2 |
| 20260501151511 | 57 | 140 | 1.0 | 4.0 | 0.00 | 0.01 | 0.00 | 56 | 1013.2 |
| 20260501151009 | 56 | 132 | 0.0 | 6.0 | 0.00 | 0.01 | 0.00 | 56 | 1013.2 |
| 20260501150509 | 56 | 181 | 1.0 | 5.0 | 0.00 | 0.01 | 0.00 | 57 | 1013.2 |
| 20260501150019 | 56 | 327 | 2.0 | 5.0 | 0.00 | 0.01 | 0.00 | 54 | 1013.3 |
| 20260501145507 | 55 | 141 | 1.0 | 4.0 | 0.00 | 0.01 | 0.00 | 56 | 1013.4 |
| 20260501145106 | 55 | 155 | 1.0 | 3.0 | 0.00 | 0.01 | 0.00 | 55 | 1013.5 |
| 20260501144508 | 55 | 111 | 0.0 | 2.0 | 0.00 | 0.01 | 0.00 | 57 | 1013.5 |
| 20260501144008 | 55 | 96 | 0.0 | 2.0 | 0.00 | 0.01 | 0.00 | 58 | 1013.5 |
| 20260501143503 | 55 | 231 | 0.0 | 4.0 | 0.00 | 0.01 | 0.00 | 56 | 1013.6 |
| 20260501143005 | 55 | 230 | 0.0 | 4.0 | 0.00 | 0.01 | 0.00 | 54 | 1013.6 |